Overview Statistics Trail Chart Weather Telemetry Raw packets
 

This is the latest recevied weather packets stored in our database for station/object SP5MRF-11. If no packets are shown the sender has not sent any weather packets the latest 10 day(s).

<< 1 2 3 4 5 >>
Time Temp. Humidity Pressure Rain* Wind** Luminosity Snow
1788553953 17.78° C 62% 1005.6 hPa - - - -
1788553063 18.33° C 61% 1005.2 hPa - - - -
1788552153 19.44° C 59% 1005.6 hPa - - - -
1788551253 20° C 57% 1004.2 hPa - - - -
1788550386 20.56° C 56% 1004 hPa - - - -
1788550353 20.56° C 56% 1004 hPa - - - -
1788549452 20.56° C 56% 1004.3 hPa - - - -
1788548552 21.11° C 54% 1004.6 hPa - - - -
1788547652 21.11° C 55% 1004.4 hPa - - - -
1788546751 21.67° C 54% 1004.8 hPa - - - -
1788545851 21.11° C 54% 1004.9 hPa - - - -
1788545021 21.67° C 53% 1005 hPa - - - -
1788544959 21.67° C 53% 1005 hPa - - - -
1788544059 21.11° C 53% 1005.4 hPa - - - -
1788543191 21.11° C 54% 1005.5 hPa - - - -
1788543159 21.11° C 54% 1005.5 hPa - - - -
1788542259 21.67° C 53% 1005.7 hPa - - - -
1788541359 21.67° C 53% 1006.3 hPa - - - -
1788540458 21.67° C 53% 1006.4 hPa - - - -
1788539558 22.22° C 53% 1006.8 hPa - - - -
1788538658 22.22° C 52% 1007.1 hPa - - - -
1788537758 22.78° C 52% 1007 hPa - - - -
1788536858 22.78° C 52% 1007.2 hPa - - - -
1788535958 22.78° C 52% 1007.3 hPa - - - -
1788535057 22.78° C 52% 1007.6 hPa - - - -

* Rain since midnight (hover to see other rain measurements)
** Current wind speed in m/s (hover to see current wind gust speed)